When you browse on this site, cookies collect data to enhance your experience and personalize the content and advertising you see.
Visit our Privacy Policy to learn more. By continuing to use the site, you agree to this use of cookies and data.
  • In Italy
  • List of Countries
  • For 7 days
  • Water Temperature
  • Satellite Maps
  • Weather Map
  • Weather Widgets
  • user-avatar
    Login

    Hourly Weather Kvandzhu

    Today, 16 January, Wednesday

    Time Temperature Precipitation Wind Pressure Humidity
    00:00 -4°C° 0 mm 5 mps 765 mmHg 70%
    01:00 -4°C° 0 mm 5 mps 765 mmHg 69%
    02:00 -6°C° 0 mm 5 mps 766 mmHg 65%
    03:00 -5°C° 0 mm 4 mps 766 mmHg 64%
    04:00 -6°C° 0 mm 3 mps 766 mmHg 63%
    05:00 -5°C° 0 mm 2 mps 766 mmHg 62%
    06:00 -5°C° 0 mm 2 mps 766 mmHg 59%
    07:00 -4°C° 0 mm 2 mps 766 mmHg 57%
    08:00 -4°C° 0 mm 2 mps 766 mmHg 54%
    09:00 -4°C° 0 mm 3 mps 765 mmHg 51%
    10:00 -1°C° 0 mm 3 mps 765 mmHg 48%
    11:00 0°C° 0 mm 4 mps 765 mmHg 46%
    12:00 0°C° 0 mm 4 mps 765 mmHg 47%
    13:00 0°C° 0 mm 5 mps 764 mmHg 48%
    14:00 +1°C° 0 mm 5 mps 764 mmHg 49%
    15:00 0°C° 0 mm 4 mps 764 mmHg 56%
    16:00 -1°C° 0 mm 4 mps 764 mmHg 62%
    17:00 -1°C° 0 mm 3 mps 764 mmHg 68%
    18:00 -1°C° 0 mm 3 mps 764 mmHg 70%
    19:00 -1°C° 0 mm 2 mps 764 mmHg 71%
    20:00 -1°C° 0 mm 2 mps 764 mmHg 73%
    21:00 -1°C° 0 mm 2 mps 764 mmHg 73%
    22:00 -1°C° 0 mm 2 mps 764 mmHg 72%
    23:00 +2°C° 0 mm 1 mps 764 mmHg 72%

    Tomorrow, 17 January, Thursday

    Time Temperature Precipitation Wind Pressure Humidity
    00:00 +2°C° 0 mm 1 mps 764 mmHg 72%
    01:00 +1°C° 0 mm 2 mps 764 mmHg 73%
    02:00 +1°C° 0 mm 2 mps 764 mmHg 73%
    03:00 +1°C° 0 mm 2 mps 763 mmHg 72%
    04:00 +1°C° 0 mm 2 mps 763 mmHg 71%
    05:00 +2°C° 0 mm 2 mps 763 mmHg 70%
    06:00 +2°C° 0 mm 2 mps 763 mmHg 66%
    07:00 +1°C° 0 mm 3 mps 763 mmHg 63%
    08:00 +2°C° 0 mm 3 mps 764 mmHg 59%
    09:00 +3°C° 0 mm 4 mps 764 mmHg 55%
    10:00 +3°C° 0 mm 5 mps 764 mmHg 50%
    11:00 +4°C° 0 mm 6 mps 764 mmHg 45%
    12:00 +4°C° 0 mm 6 mps 763 mmHg 45%
    13:00 +4°C° 0 mm 6 mps 763 mmHg 46%
    14:00 +4°C° 0 mm 6 mps 763 mmHg 46%
    15:00 +3°C° 0 mm 5 mps 763 mmHg 53%
    16:00 +3°C° 0 mm 4 mps 764 mmHg 59%
    17:00 +2°C° 0 mm 3 mps 764 mmHg 66%
    18:00 +1°C° 0 mm 3 mps 764 mmHg 69%
    19:00 +1°C° 0 mm 3 mps 765 mmHg 72%
    20:00 +2°C° 0 mm 2 mps 765 mmHg 75%
    21:00 +2°C° 0 mm 2 mps 765 mmHg 76%
    22:00 +2°C° 0 mm 2 mps 765 mmHg 77%
    23:00 +2°C° 0 mm 1 mps 766 mmHg 78%

    Day after tomorrow, 18 January, Friday

    Time Temperature Precipitation Wind Pressure Humidity
    00:00 +2°C° 0 mm 1 mps 766 mmHg 78%
    01:00 +1°C° 0 mm 1 mps 766 mmHg 79%
    02:00 +1°C° 0 mm 1 mps 766 mmHg 80%
    03:00 0°C° 0 mm 1 mps 766 mmHg 80%
    04:00 0°C° 0 mm 1 mps 766 mmHg 79%
    05:00 0°C° 0 mm 1 mps 766 mmHg 79%
    06:00 +1°C° 0 mm 1 mps 766 mmHg 75%
    07:00 +1°C° 0 mm 1 mps 766 mmHg 71%
    08:00 +2°C° 0 mm 1 mps 767 mmHg 67%
    09:00 +4°C° 0 mm 1 mps 767 mmHg 62%
    10:00 +5°C° 0 mm 2 mps 767 mmHg 57%
    11:00 +7°C° 0 mm 2 mps 766 mmHg 53%
    12:00 +7°C° 0 mm 2 mps 766 mmHg 53%
    13:00 +8°C° 0 mm 3 mps 765 mmHg 53%
    14:00 +8°C° 0 mm 3 mps 765 mmHg 52%
    15:00 +6°C° 0 mm 2 mps 765 mmHg 59%
    16:00 +5°C° 0 mm 2 mps 765 mmHg 66%
    17:00 +3°C° 0 mm 2 mps 765 mmHg 73%
    18:00 +4°C° 0 mm 1 mps 765 mmHg 75%
    19:00 +3°C° 0 mm 1 mps 765 mmHg 76%
    20:00 +2°C° 0 mm 0 mps 765 mmHg 78%
    21:00 +2°C° 0 mm 0 mps 765 mmHg 78%
    22:00 +2°C° 0 mm 0 mps 765 mmHg 78%
    23:00 +1°C° 0 mm 0 mps 765 mmHg 78%

    19 January, Saturday

    Time Temperature Precipitation Wind Pressure Humidity
    00:00 +1°C° 0 mm 0 mps 765 mmHg 78%
    01:00 +1°C° 0 mm 0 mps 765 mmHg 78%
    02:00 +1°C° 0 mm 0 mps 765 mmHg 78%
    03:00 +1°C° 0 mm 0 mps 765 mmHg 78%
    04:00 +1°C° 0 mm 0 mps 764 mmHg 78%
    05:00 +1°C° 0 mm 0 mps 764 mmHg 78%
    06:00 +2°C° 0 mm 0 mps 764 mmHg 75%
    07:00 +3°C° 0 mm 0 mps 765 mmHg 73%
    08:00 +3°C° 0 mm 0 mps 765 mmHg 70%
    09:00 +6°C° 0 mm 1 mps 765 mmHg 63%
    10:00 +7°C° 0 mm 2 mps 764 mmHg 56%
    11:00 +9°C° 0 mm 3 mps 764 mmHg 49%
    12:00 +9°C° 0 mm 3 mps 764 mmHg 49%
    13:00 +9°C° 0 mm 3 mps 763 mmHg 49%
    14:00 +8°C° 0 mm 4 mps 763 mmHg 49%
    15:00 +8°C° 0 mm 3 mps 763 mmHg 55%
    16:00 +7°C° 0 mm 3 mps 763 mmHg 61%
    17:00 +5°C° 0 mm 2 mps 763 mmHg 67%
    18:00 +5°C° 0 mm 2 mps 763 mmHg 68%
    19:00 +4°C° 0 mm 2 mps 763 mmHg 68%
    20:00 +3°C° 0 mm 2 mps 763 mmHg 69%
    21:00 +3°C° 0 mm 2 mps 764 mmHg 71%
    22:00 +2°C° 0 mm 3 mps 764 mmHg 72%
    23:00 +2°C° 0 mm 3 mps 764 mmHg 74%

    20 January, Sunday

    Time Temperature Precipitation Wind Pressure Humidity
    00:00 +1°C° 0 mm 4 mps 764 mmHg 73%
    01:00 0°C° 0 mm 4 mps 764 mmHg 71%
    02:00 0°C° 0 mm 5 mps 764 mmHg 70%
    03:00 0°C° 0 mm 4 mps 764 mmHg 68%
    04:00 -1°C° 0 mm 4 mps 764 mmHg 67%
    05:00 -1°C° 0 mm 4 mps 765 mmHg 65%
    06:00 -1°C° 0 mm 4 mps 765 mmHg 62%
    07:00 -1°C° 0 mm 5 mps 766 mmHg 59%
    08:00 -1°C° 0 mm 6 mps 766 mmHg 56%
    09:00 -1°C° 0 mm 6 mps 766 mmHg 53%
    10:00 +1°C° 0 mm 6 mps 766 mmHg 49%
    11:00 +2°C° 0 mm 7 mps 766 mmHg 46%
    12:00 +2°C° 0 mm 6 mps 766 mmHg 45%
    13:00 +2°C° 0 mm 6 mps 765 mmHg 44%
    14:00 +2°C° 0 mm 6 mps 765 mmHg 43%
    15:00 +1°C° 0 mm 5 mps 765 mmHg 47%
    16:00 0°C° 0 mm 4 mps 765 mmHg 52%
    17:00 0°C° 0 mm 3 mps 765 mmHg 57%
    18:00 -1°C° 0 mm 3 mps 766 mmHg 59%
    19:00 -1°C° 0 mm 2 mps 766 mmHg 60%
    20:00 -2°C° 0 mm 2 mps 766 mmHg 62%
    21:00 -2°C° 0 mm 2 mps 766 mmHg 62%
    22:00 0°C° 0 mm 1 mps 766 mmHg 62%
    23:00 -1°C° 0 mm 1 mps 766 mmHg 61%

    21 January, Monday

    Time Temperature Precipitation Wind Pressure Humidity
    00:00 -1°C° 0 mm 1 mps 766 mmHg 60%
    01:00 -1°C° 0 mm 1 mps 766 mmHg 59%
    02:00 -1°C° 0 mm 1 mps 766 mmHg 58%
    03:00 -1°C° 0 mm 1 mps 765 mmHg 58%
    04:00 -1°C° 0 mm 1 mps 765 mmHg 57%
    05:00 -1°C° 0 mm 1 mps 765 mmHg 57%
    06:00 0°C° 0 mm 1 mps 766 mmHg 55%
    07:00 0°C° 0 mm 1 mps 766 mmHg 52%
    08:00 +1°C° 0 mm 1 mps 766 mmHg 50%
    09:00 +3°C° 0 mm 1 mps 765 mmHg 50%
    10:00 +4°C° 0 mm 2 mps 765 mmHg 50%
    11:00 +4°C° 0 mm 3 mps 764 mmHg 50%
    12:00 +4°C° 0 mm 3 mps 764 mmHg 53%
    13:00 +4°C° 0 mm 4 mps 763 mmHg 55%
    14:00 +4°C° 0 mm 4 mps 762 mmHg 57%
    15:00 +3°C° 0 mm 4 mps 762 mmHg 59%
    16:00 +3°C° 0 mm 3 mps 762 mmHg 61%
    17:00 +3°C° 0 mm 2 mps 762 mmHg 63%
    18:00 +3°C° 0 mm 2 mps 762 mmHg 65%
    19:00 +2°C° 0 mm 2 mps 762 mmHg 67%
    20:00 +2°C° 0 mm 2 mps 762 mmHg 68%
    21:00 +2°C° 0 mm 2 mps 762 mmHg 70%
    22:00 +2°C° 0 mm 2 mps 762 mmHg 71%
    23:00 +1°C° 0 mm 2 mps 761 mmHg 72%
    Show more